User: anonymous   Login
Location: Unspecified
(0.0000°N, 0.0000°E)
Time: 05:52:41
(UTC+00:00)
Language:

FORMOSAT 3C - Orbit

View from above orbital plane
View from above orbital plane
View from above satellite
View from above satellite

Ground track
Ground track

The orbit data is extracted from the following two-line orbital elements,

1 29049U 06011C   18321.37725989  .00000062  00000-0  40791-4 0  9990
2 29049  72.0197 289.7299 0036391 324.4944  35.3771 14.28680363657038
Epoch (UTC): 17 November 2018 09:03:15
Eccentricity: 0.0036391
inclination: 72.0197°
perigee height: 770 km
apogee height: 822 km
right ascension of ascending node: 289.7299°
argument of perigee: 324.4944°
revolutions per day: 14.28680363
mean anomaly at epoch: 35.3771°
orbit number at epoch: 65703

The dashed part of the orbit path shows where the satellite is in the earth's shadow,  

DLR